Location: Cardiff
(53.7833°N, 113.6000°W)
Time: 17:18:46
(UTC+00:00)

RS-15 - Pass Details

Date: 10 December 2023
Orbit: 1893 x 2151 km, 64.8° (Epoch: 27 February)

Event Time Altitude Azimuth Distance (km) Brightness Sun altitude
Rises 03:27:56 0° 208° (SSW) 5,651 10.6 -36.0°
Reaches altitude 10° 03:31:23 10° 207° (SSW) 4,637 10.1 -36.5°
Enters shadow 03:42:27 70° 157° (SSE) 2,197 7.9 -38.1°
